Погода в Вашиндарое

Россия / Чеченская Республика     42°51′39″N   45°40′10″E
темп.,
°C
ветер,
м/с
пор.,
м/с
влажн.,
%
обл.,
%
осадки,
мм/ч
давл.,
гПа
погр.,
м
14 апреля, ср
ср1400:00+4ююв229072 1.7 101748
03:00+4ююв118820 2.2 101513
06:00+3ссз119221 0.1 101622
09:00+5с3390100 0.4 1016548
12:00+3с3397100 1.0 1017452
15:00+2сз0197100 5.3 1019152
18:00+3ююз1189100 1.3 1018112
21:00+1ююз219342 1.3 102021
15 апреля, чт
чт1500:000ю22845 0.0 102030
03:00−1ю32801 0.0 102031
06:000ю33715 0.0 102042
09:00+9ссз11400 0.0 1016793
12:00+11ссз24395 0.0 10151833
15:00+11с335081 0.1 10151543
18:00+7с2274100 0.3 1017195
21:00+4ю1182100 0.3 101914
16 апреля, пт
пт1600:00+3ю227798 0.0 101823
03:00+3ю22725 0.0 101931
06:00+3ю2267100 0.0 101939
09:00+9ссв2248100 0.0 1017923
12:00+11с225393 0.3 10171397
15:00+10ссз326247 1.6 10161027
18:00+9ссз127613 0.6 101766
21:00+5ю33787 0.9 101952
17 апреля, сб
сб1700:00+5ю337944 0.0 102053
03:00+4ю337682 0.0 102043
06:00+4ю227599 0.0 102045
09:00+8с3269100 0.0 1020689
12:00+6с3396100 0.1 1020338
15:00+5с2297100 0.3 1021363
18:00+5с2299100 0.1 1022241
21:00+5св1198100 0.1 1021130
18 апреля, вс
вс1800:00+5св1198100 0.0 102081
03:00+5с1199100 0.0 102069
06:00+5св0194100 0.0 101961
09:00+9св127997 0.3 1017448
12:00+11ссз127487 0.1 1016682
15:00+11ссв127443 0.3 1016584
18:00+8с229078 0.2 1018187
21:00+6ююв11894 0.2 101818